Location: Newark
(7.1028°S, 35.3258°W)
Time: 06:06:06
(UTC+00:00)

Vanguard 3 - Pass Details

Date: 19 February 2020
Orbit: 508 x 3263 km, 33.4° (Epoch: 06 April)

Event Time Altitude Azimuth Distance (km) Brightness Sun altitude
Rises 23:38:17 0° 283° (WNW) 7,226 12.6 -42.2°
Reaches altitude 10° 23:43:48 10° 276° (W) 6,163 12.1 -43.5°
Maximum altitude 00:01:03 41° 212° (SSW) 3,479 10.4 -47.4°
Enters shadow 00:09:15 23° 159° (SSE) 3,728 10.4 -49.2°
Drops below altitude 10° 00:13:01 10° 145° (SE) 4,318 - -50.0°
Sets 00:16:09 0° 137° (SE) 4,966 - -50.7°
